Preview of NWS' New Version of Forecast
This preview is not operational and should not be used for support decisions.

Regional Weather Roundup (RWR)

Issued by Philadelphia/Mt Holly (PHI)

                            
000
ASUS41 KPHI 221812
RWRPHI

REGIONAL WEATHER ROUNDUP
NATIONAL WEATHER SERVICE MOUNT HOLLY NJ
200 PM EDT FRI MAR 22 2019

NOTE:  "FAIR" INDICATES FEW OR NO CLOUDS BELOW 12,000 FEET WITH NO
SIGNIFICANT WEATHER AND/OR OBSTRUCTIONS TO VISIBILITY.

 * = STATION DOES NOT REPORT PRECIPITATION (E.G. RAIN, SNOW, ETC.) 
        OR FOG.

NJZ015>026-221900-
SOUTHERN NEW JERSEY
  
CITY           SKY/WX    TMP DP  RH WIND       PRES   REMARKS
POMONA         CLOUDY    48  33  56 NW23G43   29.48S                  
6HR MIN TEMP:  40; 6HR MAX TEMP:  49; 6HR PCP: TRACE;                

WILDWOOD*      CLOUDY    49  35  58 NW17G25   29.55S                  
MILLVILLE      CLOUDY    48  32  53 W22G36    29.52F                  
MOUNT HOLLY    CLOUDY    48  29  47 NW15G26   29.48S                  
TRENTON        PTSUNNY   48  32  53 NW20G30   29.44S                  
6HR MIN TEMP:  39; 6HR MAX TEMP:  48; 6HR PCP:  0.07;                


$$
NJZ001>014-221900-
NORTHERN NEW JERSEY
  
CITY           SKY/WX    TMP DP  RH WIND       PRES   REMARKS
SUSSEX         CLOUDY    43  32  65 NW13G24   29.40R                  
ANDOVER*         N/A     44  30  57 NW14G22   29.41S                  
MORRISTOWN     CLOUDY    45  34  65 N16G31    29.42S                  
NEWARK         PTSUNNY   47  34  60 NW25G32   29.38F                  
TETERBORO      CLOUDY    45  35  68 NW14G30   29.37S                  
CALDWELL       CLOUDY    44  33  65 NW20G35   29.40S                  
SOMERVILLE     CLOUDY    47  32  56 NW13G21   29.41F                  
ALLAIRE*       CLOUDY    45  34  65 W22G31    29.41S                  
TOMS RIVER*    CLOUDY    46  34  62 NW20G30   29.45R                  

$$
PAZ043-044-047-054-055-060>062-066>071-221900-
EASTERN PENNSYLVANIA
  
CITY           SKY/WX    TMP DP  RH WIND       PRES   REMARKS
PHILADELPHIA   CLOUDY    48  28  46 NW23G36   29.51S                  
6HR MIN TEMP:  39; 6HR MAX TEMP:  49; 6HR PCP:  0.04;                

NORTH PHILA    PTSUNNY   50  31  48 W18G37    29.48F                  
BLUE BELL*     CLOUDY    45  32  61 W16G29    29.50F                  
DOYLESTOWN     CLOUDY    47  31  53 W22G32    29.45F                  
QUAKERTOWN*    CLOUDY    45  30  57 W16G25    29.48S                  
PERKASIE*      MOCLDY    45  30  57 NW20G31   29.48F                  
POTTSTOWN      PTSUNNY   47  32  56 NW20G30   29.51F                  
LANCASTER      CLOUDY    47  32  56 NW23G32   29.55F                  
COATESVILLE    PTSUNNY   45  32  61 NW26G33   29.54F                  
READING        PTSUNNY   46  33  60 W12G26    29.51F                  
6HR MIN TEMP:  42; 6HR MAX TEMP:  46;                                

ALLENTOWN      CLOUDY    47  30  51 W12G29    29.47F                  
6HR MIN TEMP:  41; 6HR MAX TEMP:  48; 6HR PCP:  0.01;                

MOUNT POCONO   CLOUDY    35  30  82 W23G32    29.40R WCI  23          
6HR MIN TEMP:  32; 6HR MAX TEMP:  35; 6HR PCP:  0.02;                

HAZLETON       CLOUDY    39  28  65 NW17G29   29.48F WCI  30          
LEHIGHTON      CLOUDY    45  30  57 W12G18    29.49F                  
WILKES BARRE   CLOUDY    41  30  65 NW13G23   29.46S                  

$$
DEZALL-MDZ008-012-015-019-020-221900-
DELAWARE AND EASTERN MARYLAND
  
CITY           SKY/WX    TMP DP  RH WIND       PRES   REMARKS
WILMINGTON     CLOUDY    48  30  49 NW25G38   29.54F                  
6HR MIN TEMP:  42; 6HR MAX TEMP:  49; 6HR PCP: TRACE;                

GEORGETOWN     PTSUNNY   53  32  44 NW17G31   29.57S                  
6HR MIN TEMP:  46; 6HR MAX TEMP:  53; 6HR PCP: TRACE;                

EASTON         MOSUNNY   52  32  46 W21G30    29.64F                  
PATUXENT       PTSUNNY   53  34  48 NW13      29.62F                  
OCEAN CITY     PTSUNNY   51  34  52 W20G35    29.58S                  
WALLOPS ISLAND FAIR      54  33  45 NW21G38   29.60F                  
CAMBRIDGE      MOSUNNY   52  34  50 NW18G36   29.61F                  
SALISBURY      PTSUNNY   50  33  52 W17G33    29.60S                  

$$
PAZ001-021-NYZ056-072-MDZ011-DCZ001-221900-
OTHER NEARBY LOCATIONS
  
CITY           SKY/WX    TMP DP  RH WIND       PRES   REMARKS
HARRISBURG     PTSUNNY   48  30  49 NW25G32   29.56F                  
STATE COLLEGE  DRIZZLE   39  34  81 W21G28    29.57F WCI  29          
WILLIAMSPORT   CLOUDY    44  30  57 W14G23    29.52F                  
BINGHAMTON     CLOUDY    35  29  78 NW14G24   29.43F WCI  26          
NEW YORK CITY  CLOUDY    45  33  63 W12G24    29.39                   
BALTIMORE      PTSUNNY   50  31  48 W16G26    29.60F                  
WASHINGTON DC  PTSUNNY   54  32  43 NW13G23   29.64F                  

$$